Weather in Uchkurgan

Uzbekistan     41°06′52″N   72°04′39″E
temp.,
°C
wind,
m/s
gust,
m/s
humid.,
%
clouds,
%
prec.,
mm/h
press.,
hPa
HPBL,
m
9 march, tue
tue923:00+11nne3459100 0.0 1025122
02:00+9nne2356100 0.0 102362
05:00+9nne2254100 0.0 102243
08:00+10nne3449100 0.0 1021165
11:00+14ne223696 0.0 1018586
14:00+18nne2228100 0.0 10161020
17:00+17nne1330100 0.0 1016740
20:00+13nne354489 0.0 101795
10 march, wed
wed1023:00+12ne474894 0.0 1016151
02:00+11nne4749100 0.0 1014191
05:00+10ene1252100 0.0 101526
08:00+11nne2450100 0.1 1016162
11:00+14n4551100 0.1 1017754
14:00+16n2241100 0.0 1015943
17:00+15wnw3349100 0.0 1016917
20:00+13nnw3465100 0.1 1018161
11 march, thu
thu1123:00+11n4572100 0.4 1016173
02:00+11wnw3574100 0.1 1016484
05:00+9sw5787100 1.4 1017567
08:00+9sw61065100 0.6 1020893
11:00+11wsw5750100 0.6 10211246
14:00+12sw2339100 0.0 10211147
17:00+12ese4448100 0.0 1022876
20:00+9ene226278 0.0 102447
12 march, fri
fri1223:00+8n355875 0.0 1024112
02:00+7nne334783 0.0 102262
05:00+6ne234792 0.0 102046
08:00+7ne2342100 0.0 1018135
11:00+13ene2327100 0.0 1015581
14:00+16se2220100 0.0 1012811
17:00+16sw112288 0.0 1010421
20:00+13wnw1231100 0.0 101126
13 march, sat
sat1323:00+12n1134100 0.0 101422
02:00+11ene3444100 0.0 1013102
05:00+11nne3549100 0.0 1014152
08:00+11n5862100 0.0 1014307
11:00+12n6862100 0.3 1013461
14:00+16n5548100 0.0 1010812
17:00+16nnw2349100 0.0 1009534
20:00+13nne3458100 0.0 101189